Regional Weather Roundup
Issued by NWS Albany, NY

Home | Current Version | Previous Version | Graphics & Text | Print | Product List | Glossary Off
Versions: 1 2 3 4 5 6 7 8 9 10 11 12 13 14 15 16 17 18 19 20 21 22 23 24 25 26 27 28 29 30 31 32 33 34 35 36 37 38 39 40 41 42 43 44 45 46 47 48

000
ASUS41 KALY 011310
RWRALY

NEW YORK STATE HOURLY WEATHER ROUNDUP
NATIONAL WEATHER SERVICE ALBANY NY
800 AM EST SUN MAR 01 2015

NOTE: "FAIR" INDICATES FEW OR NO CLOUDS BELOW 12,000 FEET WITH NO
SIGNIFICANT WEATHER AND/OR NO OBSTRUCTIONS TO VISIBILITY.

NYZ032-033-038>043-046>054-057>066-NYZ062>081-011400-
EAST


CITY           SKY/WX    TMP DP  RH WIND       PRES   REMARKS
ALBANY         CLOUDY    11   3  70 CALM      30.63F
GLENS FALLS    CLOUDY     5   0  79 CALM      30.61F
POUGHKEEPSIE   CLOUDY    12   3  67 CALM      30.64F
NEWBURGH       PTSUNNY   14   9  79 VRB5      30.62F WCI   6
MONTGOMERY     LGT SNOW  11   4  73 CALM      30.60F
WHITE PLAINS   CLOUDY    21   6  52 CALM      30.62F
ISLIP          CLOUDY    22  15  75 E3        30.65F
NEW YORK CITY  PTSUNNY   26  16  65 NE8       30.66F WCI  18
CENTRAL PARK   CLOUDY    28   4  35 CALM      30.66F
$$

NYZ005>009-017-018-044>046-055-056-011400-
CENTRAL


CITY           SKY/WX    TMP DP  RH WIND       PRES   REMARKS
FULTON         SNOW      13   7  77 SE5       30.49F VSB 1/2 WCI   5
SYRACUSE       LGT SNOW   8   6  93 E7        30.50F FOG     WCI  -3
ROME           LGT SNOW  10   5  80 SE6       30.56F VSB 1   WCI   0
ELMIRA         LGT SNOW  12  10  92 CALM      30.47F VSB 3/4
BINGHAMTON     SNOW      12   9  87 SE9       30.43F VSB 1/2 WCI   0
MONTICELLO     CLOUDY     9   7  92 NE3       30.52F VSB 3/4
$$

NYZ026>034-041>043-011400-
NORTH


CITY           SKY/WX    TMP DP  RH WIND       PRES   REMARKS
WATERTOWN      CLOUDY    16   6  65 SE3       30.47F
FORT DRUM      NOT AVBL
MASSENA        MOSUNNY    6   0  76 NE5       30.55F WCI  -3
SARANAC LAKE     N/A    N/A N/A N/A MISG      30.42F
PLATTSBURGH    PTSUNNY    3  -1  83 CALM      30.60F
$$

NYZ001>004-010>016-019>021-011400-
WEST


CITY           SKY/WX    TMP DP  RH WIND       PRES   REMARKS
NIAGARA FALLS  LGT SNOW  17  14  88 SW5       30.42F FOG     WCI  10
BUFFALO        LGT SNOW  18  15  88 CALM      30.41F FOG
DUNKIRK        LGT SNOW  18  16  92 CALM      30.41F FOG
JAMESTOWN      CLOUDY    18  14  86 S7        30.33F WCI   8
WELLSVILLE     LGT SNOW  17  13  84 S5        30.34F FOG     WCI  10
ROCHESTER      LGT SNOW  14  10  84 CALM      30.44F FOG
PENN YAN       LGT SNOW  17  14  88 S7        30.43F FOG     WCI   8
$$

             KEY
       WCI = WIND CHILL INDEX
       VSB = VISIBILITY
       HX  = HEAT INDEX
$$


USA.gov is the U.S. government's official web portal to all federal, state and local government web resources and services.